| time (UTC) | temp F | wind direction | speed MPH | gust MPH | rain 1hr in | rain 24hr in | rain mn in | humidity % | barometer mb |
| 20260905081535 | 72 | 180 | 9.0 | 14.0 | 0.00 | 0.00 | 0.00 | 69 | 1001.2 |
| 20260905080048 | 72 | 147 | 10.0 | 19.0 | 0.00 | 0.00 | 0.00 | 69 | 1001.4 |
| 20260905074532 | 73 | 165 | 10.0 | 19.0 | 0.00 | 0.00 | 0.00 | 68 | 1001.5 |
| 20260905073039 | 73 | 165 | 8.0 | 13.0 | 0.00 | 0.00 | 0.00 | 68 | 1001.5 |
| 20260905071528 | 73 | 118 | 9.0 | 14.0 | 0.00 | 0.00 | 0.00 | 68 | 1001.4 |
| 20260905070032 | 73 | 175 | 10.0 | 16.0 | 0.00 | 0.00 | 0.00 | 67 | 1001.3 |
| 20260905064526 | 74 | 132 | 10.0 | 20.0 | 0.00 | 0.00 | 0.00 | 66 | 1001.5 |
| 20260905063024 | 74 | 133 | 9.0 | 18.0 | 0.00 | 0.00 | 0.00 | 65 | 1001.5 |
| 20260905061530 | 74 | 142 | 8.0 | 20.0 | 0.00 | 0.00 | 0.00 | 63 | 1001.5 |
| 20260905060022 | 74 | 165 | 10.0 | 16.0 | 0.00 | 0.00 | 0.00 | 59 | 1001.6 |
| 20260905054520 | 74 | 144 | 12.0 | 19.0 | 0.00 | 0.00 | 0.00 | 59 | 1001.5 |
| 20260905053021 | 74 | 189 | 12.0 | 20.0 | 0.00 | 0.00 | 0.00 | 58 | 1001.5 |
| 20260905051513 | 75 | 171 | 10.0 | 19.0 | 0.00 | 0.00 | 0.00 | 58 | 1001.4 |
| 20260905050013 | 75 | 123 | 11.0 | 19.0 | 0.00 | 0.00 | 0.00 | 59 | 1001.4 |
| 20260905044516 | 74 | 160 | 13.0 | 23.0 | 0.00 | 0.00 | 0.00 | 61 | 1001.3 |
| 20260905043010 | 73 | 147 | 12.0 | 21.0 | 0.00 | 0.00 | 0.00 | 61 | 1001.7 |
| 20260905041511 | 74 | 142 | 14.0 | 29.0 | 0.00 | 0.00 | 0.00 | 58 | 1001.6 |
| 20260905040016 | 74 | 128 | 14.0 | 20.0 | 0.00 | 0.00 | 0.00 | 59 | 1001.7 |
| 20260905034511 | 73 | 164 | 14.0 | 23.0 | 0.00 | 0.00 | 0.00 | 64 | 1001.7 |
| 20260905033007 | 73 | 153 | 12.0 | 20.0 | 0.00 | 0.00 | 0.00 | 69 | 1001.6 |
| 20260905031506 | 73 | 165 | 13.0 | 21.0 | 0.00 | 0.00 | 0.00 | 69 | 1001.6 |
| 20260905030007 | 73 | 155 | 12.0 | 24.0 | 0.00 | 0.00 | 0.00 | 68 | 1001.5 |
| 20260905024507 | 74 | 129 | 17.0 | 23.0 | 0.00 | 0.00 | 0.00 | 65 | 1001.3 |
| 20260905023006 | 77 | 152 | 11.0 | 19.0 | 0.00 | 0.00 | 0.00 | 57 | 1001.2 |
| 20260905021507 | 78 | 109 | 0.0 | 3.0 | 0.00 | 0.00 | 0.00 | 51 | 1001.3 |
| 20260905020005 | 79 | 212 | 1.0 | 2.0 | 0.00 | 0.00 | 0.00 | 51 | 1000.9 |
| 20260905014504 | 79 | 291 | 0.0 | 2.0 | 0.00 | 0.00 | 0.00 | 52 | 1000.5 |
| 20260905013004 | 79 | 291 | 0.0 | 2.0 | 0.00 | 0.00 | 0.00 | 51 | 1000.0 |
| 20260905011503 | 81 | 291 | 1.0 | 2.0 | 0.00 | 0.00 | 0.00 | 49 | 1000.0 |
| 20260905010001 | 81 | 291 | 1.0 | 4.0 | 0.00 | 0.00 | 0.00 | 47 | 1000.2 |
| 20260905004501 | 82 | 126 | 0.0 | 3.0 | 0.00 | 0.00 | 0.00 | 46 | 1000.3 |
| 20260905003101 | 82 | 126 | 2.0 | 7.0 | 0.00 | 0.00 | 0.00 | 42 | 1000.4 |
| 20260905001559 | 83 | 103 | 2.0 | 6.0 | 0.00 | 0.00 | 0.00 | 41 | 1000.3 |
| 20260905000058 | 83 | 164 | 6.0 | 11.0 | 0.00 | 0.00 | 0.00 | 42 | 1000.4 |
| 20260904234558 | 85 | 205 | 8.0 | 14.0 | 0.00 | 0.00 | 0.00 | 41 | 1000.2 |
| 20260904233058 | 84 | 229 | 9.0 | 18.0 | 0.00 | 0.00 | 0.00 | 43 | 999.9 |
| 20260904231559 | 81 | 250 | 11.0 | 22.0 | 0.00 | 0.00 | 0.00 | 44 | 1000.3 |
| 20260904230105 | 87 | 271 | 9.0 | 14.0 | 0.00 | 0.00 | 0.00 | 38 | 1000.1 |
| 20260904224556 | 87 | 292 | 4.0 | 13.0 | 0.00 | 0.00 | 0.00 | 38 | 999.9 |
| 20260904223058 | 86 | 306 | 8.0 | 14.0 | 0.00 | 0.00 | 0.00 | 39 | 999.7 |
| 20260904221554 | 88 | 281 | 9.0 | 17.0 | 0.00 | 0.00 | 0.00 | 38 | 999.6 |
| 20260904220109 | 88 | 298 | 1.0 | 6.0 | 0.00 | 0.00 | 0.00 | 36 | 999.8 |
| 20260904214549 | 89 | 195 | 6.0 | 10.0 | 0.00 | 0.00 | 0.00 | 36 | 1000.0 |
| 20260904213052 | 89 | 229 | 7.0 | 12.0 | 0.00 | 0.00 | 0.00 | 37 | 1000.0 |
| 20260904211605 | 88 | 272 | 5.0 | 11.0 | 0.00 | 0.00 | 0.00 | 37 | 1000.3 |
| 20260904210048 | 88 | 179 | 5.0 | 10.0 | 0.00 | 0.00 | 0.00 | 37 | 1000.7 |
| 20260904204543 | 86 | 194 | 5.0 | 9.0 | 0.00 | 0.06 | 0.00 | 40 | 1000.9 |
| 20260904203049 | 82 | 163 | 4.0 | 8.0 | 0.00 | 0.06 | 0.00 | 46 | 1001.0 |
| 20260904201542 | 81 | 86 | 6.0 | 9.0 | 0.00 | 0.06 | 0.00 | 49 | 1001.1 |
| 20260904200044 | 82 | 79 | 6.0 | 11.0 | 0.00 | 0.06 | 0.00 | 46 | 1001.5 |
| 20260904194545 | 83 | 152 | 4.0 | 9.0 | 0.00 | 0.06 | 0.00 | 44 | 1001.5 |
| 20260904193040 | 81 | 104 | 4.0 | 8.0 | 0.00 | 0.06 | 0.00 | 49 | 1001.8 |
| 20260904191546 | 80 | 146 | 3.0 | 9.0 | 0.00 | 0.06 | 0.00 | 45 | 1001.9 |
| 20260904190046 | 79 | 165 | 6.0 | 11.0 | 0.00 | 0.06 | 0.00 | 45 | 1002.1 |
| 20260904184549 | 78 | 157 | 11.0 | 18.0 | 0.00 | 0.06 | 0.00 | 47 | 1002.2 |
| 20260904183037 | 78 | 169 | 15.0 | 23.0 | 0.00 | 0.06 | 0.00 | 49 | 1002.3 |
| 20260904181537 | 85 | 223 | 4.0 | 7.0 | 0.00 | 0.06 | 0.00 | 40 | 1002.2 |
| 20260904180037 | 86 | 246 | 1.0 | 10.0 | 0.00 | 0.06 | 0.00 | 39 | 1002.4 |
| 20260904174538 | 86 | 269 | 3.0 | 6.0 | 0.00 | 0.06 | 0.00 | 40 | 1002.6 |
| 20260904173039 | 85 | 286 | 2.0 | 11.0 | 0.00 | 0.06 | 0.00 | 41 | 1002.9 |
| 20260904171529 | 84 | 253 | 4.0 | 8.0 | 0.00 | 0.06 | 0.00 | 41 | 1002.9 |
| 20260904170039 | 84 | 329 | 3.0 | 8.0 | 0.00 | 0.06 | 0.00 | 42 | 1003.1 |
| 20260904164525 | 83 | 277 | 2.0 | 8.0 | 0.00 | 0.06 | 0.00 | 43 | 1003.1 |
| 20260904163023 | 83 | 275 | 2.0 | 5.0 | 0.00 | 0.06 | 0.00 | 44 | 1003.1 |
| 20260904161521 | 82 | 266 | 0.0 | 7.0 | 0.00 | 0.06 | 0.00 | 44 | 1003.0 |
| 20260904160018 | 81 | 260 | 1.0 | 8.0 | 0.00 | 0.06 | 0.00 | 46 | 1002.9 |
| 20260904154521 | 80 | 243 | 3.0 | 7.0 | 0.00 | 0.06 | 0.00 | 47 | 1002.9 |
| 20260904153011 | 80 | 276 | 3.0 | 9.0 | 0.00 | 0.06 | 0.00 | 48 | 1002.9 |
| 20260904151512 | 79 | 238 | 4.0 | 10.0 | 0.00 | 0.06 | 0.00 | 50 | 1002.8 |
| 20260904150014 | 78 | 260 | 5.0 | 9.0 | 0.00 | 0.06 | 0.00 | 52 | 1002.6 |
| 20260904144507 | 76 | 254 | 5.0 | 10.0 | 0.00 | 0.06 | 0.00 | 55 | 1002.6 |
| 20260904143008 | 75 | 277 | 7.0 | 10.0 | 0.00 | 0.06 | 0.00 | 57 | 1002.6 |
| 20260904141505 | 74 | 256 | 4.0 | 7.0 | 0.00 | 0.06 | 0.00 | 61 | 1002.5 |
| 20260904140003 | 73 | 219 | 5.0 | 7.0 | 0.00 | 0.06 | 0.00 | 63 | 1002.4 |
| 20260904134502 | 71 | 259 | 4.0 | 8.0 | 0.00 | 0.06 | 0.00 | 65 | 1002.3 |
| 20260904133004 | 71 | 259 | 3.0 | 6.0 | 0.00 | 0.06 | 0.00 | 67 | 1002.2 |
| 20260904131559 | 70 | 259 | 2.0 | 3.0 | 0.00 | 0.06 | 0.00 | 69 | 1002.0 |
| 20260904130057 | 69 | 259 | 2.0 | 6.0 | 0.00 | 0.06 | 0.00 | 71 | 1001.7 |
| 20260904124605 | 68 | 259 | 3.0 | 6.0 | 0.00 | 0.06 | 0.00 | 73 | 1001.6 |
| 20260904123056 | 68 | 259 | 3.0 | 6.0 | 0.00 | 0.06 | 0.00 | 72 | 1001.6 |
| 20260904121556 | 68 | 259 | 2.0 | 4.0 | 0.00 | 0.06 | 0.00 | 73 | 1001.6 |
| 20260904120104 | 68 | 259 | 2.0 | 7.0 | 0.00 | 0.06 | 0.00 | 72 | 1001.5 |
| 20260904114553 | 67 | 259 | 3.0 | 4.0 | 0.00 | 0.06 | 0.00 | 73 | 1001.4 |
| 20260904113053 | 67 | 259 | 0.0 | 3.0 | 0.00 | 0.06 | 0.00 | 75 | 1001.3 |
| 20260904111551 | 67 | 259 | 2.0 | 7.0 | 0.00 | 0.06 | 0.00 | 76 | 1001.2 |
| 20260904110049 | 67 | 273 | 3.0 | 8.0 | 0.00 | 0.06 | 0.00 | 75 | 1001.1 |
| 20260904104547 | 68 | 238 | 4.0 | 8.0 | 0.00 | 0.06 | 0.00 | 74 | 1001.1 |
| 20260904103044 | 68 | 250 | 8.0 | 11.0 | 0.00 | 0.06 | 0.00 | 73 | 1001.2 |
| 20260904101541 | 68 | 250 | 6.0 | 11.0 | 0.00 | 0.06 | 0.00 | 71 | 1001.3 |
| 20260904100042 | 69 | 264 | 7.0 | 13.0 | 0.00 | 0.06 | 0.00 | 69 | 1000.9 |
| 20260904094542 | 70 | 245 | 9.0 | 14.0 | 0.00 | 0.06 | 0.00 | 68 | 1000.9 |
| 20260904093031 | 73 | 251 | 6.0 | 13.0 | 0.00 | 0.06 | 0.00 | 62 | 1000.9 |
| 20260904091533 | 74 | 262 | 4.0 | 7.0 | 0.00 | 0.06 | 0.00 | 57 | 1001.1 |
| 20260904090025 | 75 | 270 | 2.0 | 7.0 | 0.00 | 0.06 | 0.00 | 56 | 1000.8 |
| 20260904084523 | 75 | 304 | 2.0 | 5.0 | 0.00 | 0.06 | 0.00 | 56 | 1000.8 |
| 20260904083019 | 75 | 204 | 3.0 | 12.0 | 0.00 | 0.06 | 0.00 | 54 | 1000.5 |